User: anonymous   Login
Location: ???? ?????
(30.0052°N, 31.2891°E)
Time: 23:48:44
(UTC+00:00)
Language:

SEDSat Delta rocket - Orbit

View from above orbital plane
View from above orbital plane
View from above satellite
View from above satellite

Ground track
Ground track

The orbit data is extracted from the following two-line orbital elements,

1 25510U 98061C   24051.67268873  .00002984  00000-0  49875-3 0  9995
2 25510  31.4318 175.1189 0318022 135.5982 227.0607 14.40013565328664
Epoch (UTC): 20 February 2024 16:08:40
Eccentricity: 0.0318022
inclination: 31.4318°
perigee height: 531 km
apogee height: 985 km
right ascension of ascending node: 175.1189°
argument of perigee: 135.5982°
revolutions per day: 14.40013565
mean anomaly at epoch: 227.0607°
orbit number at epoch: 32866

The dashed part of the orbit path shows where the satellite is in the earth's shadow,  

DLR